STARLINK-3225, 49737

Orbit data source: Space-Track

STARLINK-3225, 49737 is a payload satellite owned by SpaceX/Seattle (US) in LEO that was launched on Thu, 02 Dec 2021 UTC via an FALCON 9 launch vehicle from the Air Force Eastern Test Range (AFETR). Payload-class satellites include a variety of spacecraft equipped with specific instruments for various scientific and technological missions. These include communications satellites like Starlink; space stations such as the ISS; scientific satellites like the Hubble; Earth observation satellites from companies like Planet Labs, Umbra, and HawkEye 360; GPS; miniature CubeSats for education and research; and military/defense satellites.

Loading next visibility...
Identifier
49737, 2021-115P
Orbit
LEO
Country
Flag of USUS
Related business
Manufacturer
SpaceX/Seattle
Mission
Operational Commercial Communications
Bus & Motor
STARLINK, Unknown motor
Mass
290 kg wet, ~270 kg dry
Launch date (UTC)
2021-12-02 (5 years ago)
Launch vehicle
FALCON 9
Launch site
Air Force Eastern Test Range (AFETR)
Object type
Payload
Rocket body
Debris
Shape & HBR
Box + 1 Pan, 10.1 m
Radar Cross Section
13.562 m², Large (>1 m²)

Expand to show TLE details & history
Last TLE update: 2 days ago

TLE from 2 days ago
0 STARLINK-3225
1 49737U 21115P   26170.94611841  .00001584  00000-0  11761-3 0  9997
2 49737  53.1608  49.9621 0001533  93.2261 266.8906 15.08843236250971
Epoch: 2026-06-19T22:42Z
TLE epoch observation values (Epoch: 2026-06-19T22:42:24.630Z)
Latitude
-0.00002°
Longitude
161.19166°
Altitude
540.683 km
Speed
7.593 km/s
True Right ascension
03h 19m 50s
True Declination
0° 00' 00"
Sunlit
Object was in daylight at epoch
Visualization orbit readout
Latitude
Unknown
Longitude
Unknown
Altitude
Unknown
Speed
Unknown
Apparent Right ascension
Unknown
Apparent Declination
Unknown
Sunlit
N/A
Visualization observer readout
Local Sidereal Time
21:33:06
Azimuth
Unknown
Elevation
Unknown
Doppler factor
Unknown
Orbital elements
Apogee altitude
541.048 km
Perigee altitude
538.927 km
Semi-major axis
6,918.124 km
Eccentricity
0.00015
Inclination
53.1608°
RAAN
49.9621°
Arg. of periapsis
93.2261°
True anomaly
266.87306°
Mean anomaly
266.8906°
Eccentric anomaly
266.88183°
Mean motion
3.7719 °/min
Orbital period
95.44 mins
BSTAR
0.00011761
Loading maneuver chart data...
Computing Atmospheric mass density...
Loading historical data...
Loading historical data...
Loading historical data...
Loading historical data...
Loading historical data...
Loading historical data...
Loading historical data...

Documentation

Showing up to 5 results
|